Location: Tom
(33.0437°N, 96.9452°W)
Time: 15:06:07
(UTC-06:00)

N. Korean satellite - Pass Details

Date: 28 January 2019
Orbit: 457 x 510 km, 97.2° (Epoch: 18 February)

Event Time Altitude Azimuth Distance (km) Brightness Sun altitude
Rises 18:41:20 0° 196° (SSW) 2,580 10.7 -9.8°
Reaches altitude 10° 18:43:44 10° 212° (SSW) 1,708 10.1 -10.3°
Maximum altitude 18:46:39 22° 264° (W) 1,146 9.6 -10.9°
Drops below altitude 10° 18:49:35 10° 317° (NW) 1,729 9.8 -11.5°
Sets 18:52:03 0° 332° (NNW) 2,622 10.5 -12.0°
